When you browse on this site, cookies collect data to enhance your experience and personalize the content and advertising you see.
Visit our Privacy Policy to learn more. By continuing to use the site, you agree to this use of cookies and data.
  • In Schweiz
  • Länderverzeichnis
  • Für 7 Tage
  • Wassertemperatur
  • Satellitenkarten
  • Wetterkarte
  • Widgets
  • user-avatar
    Anmelden

    Stündliche Wetter Qala i Naw

    Heute, 26 Juni, Mittwoch

    Zeit Temperatur Niederschläge Wind Luftdruck Luftfeuchtigkeit
    00:00 +23°C° 0 mm 1 m/S 679 mmHg 18%
    01:00 +23°C° 0 mm 1 m/S 679 mmHg 19%
    02:00 +20°C° 0 mm 0 m/S 679 mmHg 19%
    03:00 +19°C° 0 mm 0 m/S 678 mmHg 20%
    04:00 +19°C° 0 mm 0 m/S 678 mmHg 21%
    05:00 +21°C° 0 mm 0 m/S 679 mmHg 18%
    06:00 +26°C° 0 mm 1 m/S 680 mmHg 15%
    07:00 +28°C° 0 mm 1 m/S 681 mmHg 12%
    08:00 +30°C° 0 mm 2 m/S 681 mmHg 11%
    09:00 +33°C° 0 mm 4 m/S 681 mmHg 11%
    10:00 +35°C° 0 mm 6 m/S 681 mmHg 10%
    11:00 +36°C° 0 mm 6 m/S 681 mmHg 9%
    12:00 +36°C° 0 mm 7 m/S 681 mmHg 9%
    13:00 +38°C° 0 mm 8 m/S 681 mmHg 8%
    14:00 +38°C° 0 mm 8 m/S 681 mmHg 8%
    15:00 +38°C° 0 mm 8 m/S 680 mmHg 7%
    16:00 +38°C° 0 mm 8 m/S 680 mmHg 7%
    17:00 +35°C° 0 mm 7 m/S 680 mmHg 8%
    18:00 +33°C° 0 mm 5 m/S 680 mmHg 9%
    19:00 +30°C° 0 mm 4 m/S 680 mmHg 9%
    20:00 +28°C° 0 mm 3 m/S 680 mmHg 11%
    21:00 +26°C° 0 mm 2 m/S 679 mmHg 12%
    22:00 +24°C° 0 mm 1 m/S 679 mmHg 14%
    23:00 +24°C° 0 mm 1 m/S 679 mmHg 15%

    Morgen, 27 Juni, Donnerstag

    Zeit Temperatur Niederschläge Wind Luftdruck Luftfeuchtigkeit
    00:00 +23°C° 0 mm 1 m/S 678 mmHg 16%
    01:00 +22°C° 0 mm 1 m/S 678 mmHg 17%
    02:00 +22°C° 0 mm 1 m/S 678 mmHg 17%
    03:00 +21°C° 0 mm 1 m/S 677 mmHg 18%
    04:00 +21°C° 0 mm 1 m/S 677 mmHg 19%
    05:00 +23°C° 0 mm 1 m/S 678 mmHg 16%
    06:00 +26°C° 0 mm 1 m/S 679 mmHg 14%
    07:00 +29°C° 0 mm 1 m/S 679 mmHg 11%
    08:00 +30°C° 0 mm 2 m/S 679 mmHg 11%
    09:00 +33°C° 0 mm 3 m/S 680 mmHg 11%
    10:00 +34°C° 0 mm 4 m/S 680 mmHg 11%
    11:00 +36°C° 0 mm 5 m/S 680 mmHg 10%
    12:00 +38°C° 0 mm 7 m/S 679 mmHg 10%
    13:00 +39°C° 0 mm 8 m/S 679 mmHg 10%
    14:00 +39°C° 0 mm 9 m/S 679 mmHg 10%
    15:00 +39°C° 0 mm 9 m/S 678 mmHg 10%
    16:00 +39°C° 0 mm 10 m/S 678 mmHg 10%
    17:00 +37°C° 0 mm 8 m/S 678 mmHg 12%
    18:00 +35°C° 0 mm 7 m/S 678 mmHg 13%
    19:00 +33°C° 0 mm 5 m/S 678 mmHg 14%
    20:00 +30°C° 0 mm 4 m/S 678 mmHg 16%
    21:00 +29°C° 0 mm 3 m/S 678 mmHg 18%
    22:00 +27°C° 0 mm 2 m/S 677 mmHg 20%
    23:00 +26°C° 0 mm 1 m/S 677 mmHg 21%

    übermorgen, 28 Juni, Freitag

    Zeit Temperatur Niederschläge Wind Luftdruck Luftfeuchtigkeit
    00:00 +25°C° 0 mm 1 m/S 676 mmHg 22%
    01:00 +24°C° 0 mm 1 m/S 676 mmHg 23%
    02:00 +24°C° 0 mm 1 m/S 676 mmHg 24%
    03:00 +23°C° 0 mm 1 m/S 676 mmHg 24%
    04:00 +23°C° 0 mm 1 m/S 675 mmHg 25%
    05:00 +25°C° 0 mm 1 m/S 676 mmHg 22%
    06:00 +27°C° 0 mm 1 m/S 677 mmHg 19%
    07:00 +30°C° 0 mm 1 m/S 678 mmHg 16%
    08:00 +32°C° 0 mm 2 m/S 678 mmHg 14%
    09:00 +35°C° 0 mm 3 m/S 678 mmHg 13%
    10:00 +36°C° 0 mm 5 m/S 678 mmHg 12%
    11:00 +38°C° 0 mm 6 m/S 678 mmHg 11%
    12:00 +39°C° 0 mm 7 m/S 678 mmHg 11%
    13:00 +40°C° 0 mm 8 m/S 678 mmHg 10%
    14:00 +40°C° 0 mm 8 m/S 677 mmHg 10%
    15:00 +40°C° 0 mm 7 m/S 677 mmHg 11%
    16:00 +40°C° 0 mm 7 m/S 677 mmHg 11%
    17:00 +38°C° 0 mm 6 m/S 677 mmHg 12%
    18:00 +36°C° 0 mm 6 m/S 676 mmHg 14%
    19:00 +34°C° 0 mm 5 m/S 676 mmHg 16%
    20:00 +32°C° 0 mm 4 m/S 676 mmHg 19%
    21:00 +30°C° 0 mm 4 m/S 676 mmHg 22%
    22:00 +28°C° 0 mm 3 m/S 676 mmHg 25%
    23:00 +27°C° 0 mm 2 m/S 676 mmHg 27%

    29 Juni, Samstag

    Zeit Temperatur Niederschläge Wind Luftdruck Luftfeuchtigkeit
    00:00 +26°C° 0 mm 2 m/S 676 mmHg 29%
    01:00 +26°C° 0 mm 2 m/S 676 mmHg 31%
    02:00 +25°C° 0 mm 1 m/S 675 mmHg 31%
    03:00 +25°C° 0 mm 1 m/S 675 mmHg 32%
    04:00 +24°C° 0 mm 1 m/S 675 mmHg 32%
    05:00 +27°C° 0 mm 1 m/S 676 mmHg 28%
    06:00 +29°C° 0 mm 2 m/S 676 mmHg 24%
    07:00 +31°C° 0 mm 2 m/S 677 mmHg 20%
    08:00 +34°C° 0 mm 3 m/S 677 mmHg 19%
    09:00 +35°C° 0 mm 4 m/S 677 mmHg 17%
    10:00 +37°C° 0 mm 4 m/S 677 mmHg 16%
    11:00 +39°C° 0 mm 5 m/S 677 mmHg 14%
    12:00 +40°C° 0 mm 6 m/S 677 mmHg 13%
    13:00 +41°C° 0 mm 6 m/S 677 mmHg 12%
    14:00 +41°C° 0 mm 7 m/S 677 mmHg 12%
    15:00 +41°C° 0 mm 7 m/S 677 mmHg 11%
    16:00 +41°C° 0 mm 7 m/S 677 mmHg 11%
    17:00 +39°C° 0 mm 6 m/S 676 mmHg 13%
    18:00 +36°C° 0 mm 5 m/S 676 mmHg 14%
    19:00 +35°C° 0 mm 5 m/S 676 mmHg 16%
    20:00 +31°C° 0 mm 3 m/S 676 mmHg 18%
    21:00 +29°C° 0 mm 2 m/S 676 mmHg 20%
    22:00 +27°C° 0 mm 1 m/S 676 mmHg 23%
    23:00 +27°C° 0 mm 1 m/S 675 mmHg 23%

    30 Juni, Sonntag

    Zeit Temperatur Niederschläge Wind Luftdruck Luftfeuchtigkeit
    00:00 +26°C° 0 mm 1 m/S 675 mmHg 24%
    01:00 +25°C° 0 mm 1 m/S 675 mmHg 24%
    02:00 +23°C° 0 mm 0 m/S 674 mmHg 25%
    03:00 +22°C° 0 mm 0 m/S 674 mmHg 26%
    04:00 +21°C° 0 mm 0 m/S 674 mmHg 27%
    05:00 +24°C° 0 mm 0 m/S 675 mmHg 23%
    06:00 +27°C° 0 mm 0 m/S 676 mmHg 19%
    07:00 +30°C° 0 mm 0 m/S 676 mmHg 16%
    08:00 +33°C° 0 mm 1 m/S 677 mmHg 14%
    09:00 +36°C° 0 mm 2 m/S 677 mmHg 12%
    10:00 +37°C° 0 mm 2 m/S 677 mmHg 10%
    11:00 +40°C° 0 mm 4 m/S 677 mmHg 9%
    12:00 +41°C° 0 mm 5 m/S 677 mmHg 8%
    13:00 +42°C° 0 mm 6 m/S 677 mmHg 7%
    14:00 +42°C° 0 mm 6 m/S 677 mmHg 7%
    15:00 +44°C° 0 mm 7 m/S 676 mmHg 7%
    16:00 +44°C° 0 mm 8 m/S 676 mmHg 7%
    17:00 +41°C° 0 mm 7 m/S 676 mmHg 8%
    18:00 +39°C° 0 mm 6 m/S 676 mmHg 9%
    19:00 +36°C° 0 mm 5 m/S 676 mmHg 10%
    20:00 +34°C° 0 mm 4 m/S 676 mmHg 13%
    21:00 +31°C° 0 mm 3 m/S 676 mmHg 15%
    22:00 +29°C° 0 mm 2 m/S 676 mmHg 17%
    23:00 +28°C° 0 mm 1 m/S 676 mmHg 18%

    1 Juli, Montag

    Zeit Temperatur Niederschläge Wind Luftdruck Luftfeuchtigkeit
    00:00 +27°C° 0 mm 1 m/S 675 mmHg 19%
    01:00 +26°C° 0 mm 1 m/S 675 mmHg 20%
    02:00 +26°C° 0 mm 1 m/S 675 mmHg 21%
    03:00 +23°C° 0 mm 0 m/S 675 mmHg 21%
    04:00 +23°C° 0 mm 0 m/S 675 mmHg 22%
    05:00 +25°C° 0 mm 0 m/S 675 mmHg 19%
    06:00 +30°C° 0 mm 1 m/S 676 mmHg 16%
    07:00 +33°C° 0 mm 1 m/S 677 mmHg 13%
    08:00 +36°C° 0 mm 2 m/S 677 mmHg 12%
    09:00 +37°C° 0 mm 3 m/S 678 mmHg 11%
    10:00 +40°C° 0 mm 4 m/S 678 mmHg 10%
    11:00 +42°C° 0 mm 5 m/S 678 mmHg 9%
    12:00 +44°C° 0 mm 7 m/S 678 mmHg 8%
    13:00 +46°C° 0 mm 8 m/S 678 mmHg 8%
    14:00 +46°C° 0 mm 8 m/S 677 mmHg 8%
    15:00 +46°C° 0 mm 8 m/S 677 mmHg 8%
    16:00 +47°C° 0 mm 9 m/S 677 mmHg 8%
    17:00 +44°C° 0 mm 8 m/S 677 mmHg 9%
    18:00 +41°C° 0 mm 7 m/S 677 mmHg 10%
    19:00 +39°C° 0 mm 6 m/S 677 mmHg 12%
    20:00 +36°C° 0 mm 5 m/S 677 mmHg 13%
    21:00 +34°C° 0 mm 3 m/S 677 mmHg 15%
    22:00 +32°C° 0 mm 2 m/S 677 mmHg 16%
    23:00 +31°C° 0 mm 2 m/S 677 mmHg 17%
    Mehr zeigen